Powrót do katalogu

STARLINK-34335

AktywnyŁącznośćVLEO
NORAD 64362·PAYLOAD·🇺🇸 United States

Wystrzelony Jun 13, 2025 z Vandenberg Space Force Base

Loading…

Następne Przeloty (najbliższe 24 godziny)

TLE

ŚwieżeSource: CelesTrak SupGP

Epoka: Sep 14, 2026, 20:51 UTC

1 64362C 25126U   26257.86923611  .00062530  00000+0  21761-2 0  2576
2 64362  70.0002 276.0085 0003419 266.9818 166.8605 15.29533894    19

Śledź STARLINK-34335 w czasie rzeczywistym z AllMySat

Download on the App Store